,,Stat5,,Stat1,,Stat2,,Stat3,,Stat4,,Wind1,,Wind1,
time,status,PA1M_AVG,status,PR1M_SUM,status,RH1M_AVG,status,SR1M_AVG,status,TA1M_AVG,status,W1dAve1m,status,W1sAve1m,
2000-04-27, 00:00:00,VALID,917.533,VALID,0,VALID,96.5555,VALID,0.0169808,VALID,18.7453,VALID,195,VALID,0.585286,
2000-04-27, 00:01:00,VALID,917.504,VALID,0,VALID,96.5567,VALID,0.0169808,VALID,18.7225,VALID,190,VALID,0.780617,
2000-04-27, 00:02:00,VALID,917.488,VALID,0,VALID,96.5351,VALID,0.0169808,VALID,18.7063,VALID,189,VALID,0.772748,
2000-04-27, 00:03:00,VALID,917.455,VALID,0,VALID,96.614,VALID,0,VALID,18.6902,VALID,207,VALID,0.517969,
2000-04-27, 00:04:00,VALID,917.422,VALID,0,VALID,96.6229,VALID,0.0339617,VALID,18.6934,VALID,223,VALID,0.684053,
2000-04-27, 00:05:00,VALID,917.406,VALID,0,VALID,96.6572,VALID,0,VALID,18.687,VALID,230,VALID,0.453547,
2000-04-27, 00:06:00,VALID,917.385,VALID,0,VALID,96.6445,VALID,0.0169808,VALID,18.687,VALID,218,VALID,0.776442,
2000-04-27, 00:07:00,VALID,917.37,VALID,0,VALID,96.6547,VALID,0.0339617,VALID,18.6902,VALID,222,VALID,0.821652,
2000-04-27, 00:08:00,VALID,917.35,VALID,0,VALID,96.5707,VALID,0.0339617,VALID,18.6937,VALID,224,VALID,1.01042,
2000-04-27, 00:09:00,VALID,917.341,VALID,0,VALID,96.5784,VALID,0.0679233,VALID,18.6733,VALID,236,VALID,1.04129,
2000-04-27, 00:10:00,VALID,917.333,VALID,0,VALID,96.5796,VALID,0.0509425,VALID,18.6738,VALID,232,VALID,1.03746,
2000-04-27, 00:11:00,VALID,917.321,VALID,0,VALID,96.4588,VALID,0.0849042,VALID,18.6607,VALID,215,VALID,1.51649,
2000-04-27, 00:12:00,VALID,917.318,VALID,0,VALID,96.3024,VALID,0.0509425,VALID,18.6639,VALID,211,VALID,1.03601,
2000-04-27, 00:13:00,VALID,917.318,VALID,0,VALID,96.1015,VALID,0.0509425,VALID,18.6736,VALID,206,VALID,0.954728,
2000-04-27, 00:14:00,VALID,917.314,VALID,0,VALID,95.907,VALID,0.0339617,VALID,18.6833,VALID,199,VALID,1.1322,
2000-04-27, 00:15:00,VALID,917.297,VALID,0,VALID,95.72,VALID,0.0509425,VALID,18.693,VALID,199,VALID,1.09235,
2000-04-27, 00:16:00,VALID,917.283,VALID,0,VALID,95.6768,VALID,0.0679233,VALID,18.6962,VALID,207,VALID,0.686472,
2000-04-27, 00:17:00,VALID,917.265,VALID,0,VALID,95.7213,VALID,0.0509425,VALID,18.7034,VALID,199,VALID,0.891026,
2000-04-27, 00:18:00,VALID,917.239,VALID,0,VALID,95.8103,VALID,0.0679233,VALID,18.6736,VALID,196,VALID,1.00449,
2000-04-27, 00:19:00,VALID,917.211,VALID,0,VALID,95.7493,VALID,0.0679233,VALID,18.6713,VALID,181,VALID,1.09987,
2000-04-27, 00:20:00,VALID,917.17,VALID,0,VALID,95.7938,VALID,0.0679233,VALID,18.6348,VALID,164,VALID,1.09063,
2000-04-27, 00:21:00,VALID,917.137,VALID,0,VALID,95.8624,VALID,0.0169808,VALID,18.6249,VALID,161,VALID,1.17348,
2000-04-27, 00:22:00,VALID,917.109,VALID,0,VALID,95.8675,VALID,0.0169808,VALID,18.6365,VALID,163,VALID,1.24404,
2000-04-27, 00:23:00,VALID,917.097,VALID,0,VALID,95.9349,VALID,-0.0509425,VALID,18.6208,VALID,162,VALID,1.16246,
2000-04-27, 00:24:00,VALID,917.091,VALID,0,VALID,95.982,VALID,-0.0169808,VALID,18.6106,VALID,152,VALID,1.24157,
2000-04-27, 00:25:00,VALID,917.087,VALID,0,VALID,95.9972,VALID,-0.0509425,VALID,18.5947,VALID,163,VALID,1.16146,
2000-04-27, 00:26:00,VALID,917.086,VALID,0,VALID,96.0824,VALID,-0.0679233,VALID,18.5689,VALID,156,VALID,1.37676,
2000-04-27, 00:27:00,VALID,917.096,VALID,0,VALID,96.2884,VALID,-0.0509425,VALID,18.5497,VALID,156,VALID,1.19679,
2000-04-27, 00:28:00,VALID,917.115,VALID,0,VALID,96.4576,VALID,-0.0339617,VALID,18.5269,VALID,176,VALID,1.53184,
2000-04-27, 00:29:00,VALID,917.137,VALID,0,VALID,96.6521,VALID,-0.0509425,VALID,18.5304,VALID,188,VALID,1.84435,
2000-04-27, 00:30:00,VALID,917.158,VALID,0,VALID,96.8022,VALID,-0.0339617,VALID,18.5465,VALID,195,VALID,1.71382,
2000-04-27, 00:31:00,VALID,917.169,VALID,0,VALID,96.8162,VALID,-0.0339617,VALID,18.5592,VALID,191,VALID,1.67849,
2000-04-27, 00:32:00,VALID,917.169,VALID,0,VALID,96.8607,VALID,-0.0169808,VALID,18.5656,VALID,199,VALID,1.17229,
2000-04-27, 00:33:00,VALID,917.156,VALID,0,VALID,97.0145,VALID,-0.0169808,VALID,18.5592,VALID,212,VALID,1.39964,
2000-04-27, 00:34:00,VALID,917.145,VALID,0,VALID,97.204,VALID,-0.0339617,VALID,18.5532,VALID,206,VALID,1.48945,
2000-04-27, 00:35:00,VALID,917.122,VALID,0,VALID,97.3248,VALID,-0.0509425,VALID,18.52,VALID,199,VALID,1.15097,
2000-04-27, 00:36:00,VALID,917.12,VALID,0,VALID,97.3731,VALID,-0.0169808,VALID,18.5239,VALID,207,VALID,1.41914,
2000-04-27, 00:37:00,VALID,917.083,VALID,0,VALID,97.3248,VALID,-0.0339617,VALID,18.5144,VALID,210,VALID,1.15224,
2000-04-27, 00:38:00,VALID,917.068,VALID,0,VALID,97.1226,VALID,-0.0679233,VALID,18.5077,VALID,201,VALID,1.29996,
2000-04-27, 00:39:00,VALID,917.053,VALID,0,VALID,96.6992,VALID,-0.0169808,VALID,18.5467,VALID,204,VALID,1.43349,
2000-04-27, 00:40:00,VALID,917.043,VALID,0,VALID,96.3419,VALID,-0.0509425,VALID,18.5917,VALID,213,VALID,1.00041,
2000-04-27, 00:41:00,VALID,917.016,VALID,0,VALID,96.1015,VALID,-0.0509425,VALID,18.6436,VALID,203,VALID,1.0004,
2000-04-27, 00:42:00,VALID,916.998,VALID,0,VALID,95.9769,VALID,-0.0509425,VALID,18.6593,VALID,209,VALID,1.13633,
2000-04-27, 00:43:00,VALID,916.986,VALID,0,VALID,95.9731,VALID,-0.0509425,VALID,18.6593,VALID,200,VALID,0.975084,
2000-04-27, 00:44:00,VALID,916.965,VALID,0,VALID,95.893,VALID,-0.0339617,VALID,18.6628,VALID,192,VALID,0.79707,
2000-04-27, 00:45:00,VALID,916.943,VALID,0,VALID,95.7709,VALID,-0.0509425,VALID,18.6531,VALID,207,VALID,0.790665,
2000-04-27, 00:46:00,VALID,916.939,VALID,0,VALID,95.3843,VALID,-0.0339617,VALID,18.6662,VALID,194,VALID,0.870066,
2000-04-27, 00:47:00,VALID,916.917,VALID,0,VALID,95.1008,VALID,-0.0509425,VALID,18.6983,VALID,189,VALID,0.714543,
2000-04-27, 00:48:00,VALID,916.907,VALID,0,VALID,95.0639,VALID,-0.0339617,VALID,18.7174,VALID,177,VALID,0.678454,
2000-04-27, 00:49:00,VALID,916.898,VALID,0,VALID,95.0563,VALID,0,VALID,18.7177,VALID,173,VALID,0.661258,
2000-04-27, 00:50:00,VALID,916.89,VALID,0,VALID,95.0423,VALID,-0.0169808,VALID,18.7177,VALID,159,VALID,0.841602,
2000-04-27, 00:51:00,VALID,916.891,VALID,0,VALID,94.9278,VALID,-0.0679233,VALID,18.6983,VALID,159,VALID,0.928632,
2000-04-27, 00:52:00,VALID,916.888,VALID,0,VALID,94.6303,VALID,0,VALID,18.7015,VALID,163,VALID,0.827344,
2000-04-27, 00:53:00,VALID,916.892,VALID,0,VALID,94.5794,VALID,-0.0339617,VALID,18.7052,VALID,161,VALID,0.97476,
2000-04-27, 00:54:00,VALID,916.884,VALID,0,VALID,94.7663,VALID,-0.0509425,VALID,18.6923,VALID,154,VALID,1.10814,
2000-04-27, 00:55:00,VALID,916.884,VALID,0,VALID,94.5552,VALID,-0.0509425,VALID,18.6531,VALID,160,VALID,1.31591,
2000-04-27, 00:56:00,VALID,916.883,VALID,0,VALID,94.1407,VALID,-0.0509425,VALID,18.6697,VALID,162,VALID,1.31271,
2000-04-27, 00:57:00,VALID,916.88,VALID,0,VALID,94.4255,VALID,-0.0509425,VALID,18.7041,VALID,153,VALID,0.999199,
2000-04-27, 00:58:00,VALID,916.869,VALID,0,VALID,94.6633,VALID,-0.0339617,VALID,18.6921,VALID,153,VALID,1.32187,
2000-04-27, 00:59:00,VALID,916.876,VALID,0,VALID,94.6964,VALID,-0.0679233,VALID,18.6725,VALID,166,VALID,1.01372,
2000-04-27, 01:00:00,VALID,916.873,VALID,0,VALID,94.7295,VALID,-0.0339617,VALID,18.6588,VALID,175,VALID,1.05039,
2000-04-27, 01:01:00,VALID,916.865,VALID,0,VALID,94.7396,VALID,-0.0169808,VALID,18.6628,VALID,185,VALID,1.02143,
2000-04-27, 01:02:00,VALID,916.848,VALID,0,VALID,94.732,VALID,-0.0679233,VALID,18.6662,VALID,202,VALID,1.04359,
2000-04-27, 01:03:00,VALID,916.822,VALID,0,VALID,94.8172,VALID,-0.0509425,VALID,18.6923,VALID,204,VALID,1.16066,
2000-04-27, 01:04:00,VALID,916.798,VALID,0,VALID,94.8223,VALID,-0.0509425,VALID,18.705,VALID,207,VALID,1.07586,
2000-04-27, 01:05:00,VALID,916.765,VALID,0,VALID,94.9367,VALID,-0.0339617,VALID,18.6953,VALID,206,VALID,0.926082,
2000-04-27, 01:06:00,VALID,916.723,VALID,0,VALID,94.9329,VALID,-0.0679233,VALID,18.6886,VALID,197,VALID,1.1209,
2000-04-27, 01:07:00,VALID,916.695,VALID,0,VALID,94.8948,VALID,-0.0169808,VALID,18.6985,VALID,198,VALID,1.12437,
2000-04-27, 01:08:00,VALID,916.664,VALID,0,VALID,94.9367,VALID,-0.0169808,VALID,18.6817,VALID,205,VALID,1.09746,
2000-04-27, 01:09:00,VALID,916.648,VALID,0,VALID,94.7574,VALID,-0.0509425,VALID,18.6822,VALID,206,VALID,1.09014,
2000-04-27, 01:10:00,VALID,916.621,VALID,0,VALID,94.8401,VALID,-0.0169808,VALID,18.6985,VALID,211,VALID,0.916735,
2000-04-27, 01:11:00,VALID,916.606,VALID,0,VALID,95.069,VALID,-0.0679233,VALID,18.6953,VALID,207,VALID,0.81851,
2000-04-27, 01:12:00,VALID,916.6,VALID,0,VALID,95.1313,VALID,-0.0849042,VALID,18.6662,VALID,198,VALID,0.983141,
2000-04-27, 01:13:00,VALID,916.594,VALID,0,VALID,94.3505,VALID,-0.0509425,VALID,18.6436,VALID,190,VALID,1.28886,
2000-04-27, 01:14:00,VALID,916.586,VALID,0,VALID,93.955,VALID,-0.0509425,VALID,18.7018,VALID,185,VALID,1.25977,
2000-04-27, 01:15:00,VALID,916.587,VALID,0,VALID,94.0517,VALID,-0.0679233,VALID,18.75,VALID,160,VALID,1.21981,
2000-04-27, 01:16:00,VALID,916.594,VALID,0,VALID,94.7333,VALID,-0.0169808,VALID,18.7269,VALID,129,VALID,1.06758,
2000-04-27, 01:17:00,VALID,916.6,VALID,0,VALID,94.9622,VALID,-0.0509425,VALID,18.6699,VALID,147,VALID,1.07272,
2000-04-27, 01:18:00,VALID,916.613,VALID,0,VALID,95.2979,VALID,-0.101885,VALID,18.6178,VALID,138,VALID,0.912212,
2000-04-27, 01:19:00,VALID,916.613,VALID,0,VALID,95.4606,VALID,-0.0849042,VALID,18.576,VALID,127,VALID,0.976763,
2000-04-27, 01:20:00,VALID,916.616,VALID,0,VALID,95.5547,VALID,-0.0679233,VALID,18.537,VALID,135,VALID,0.780428,
2000-04-27, 01:21:00,VALID,916.617,VALID,0,VALID,95.701,VALID,-0.0509425,VALID,18.5244,VALID,160,VALID,0.505208,
2000-04-27, 01:22:00,VALID,916.616,VALID,0,VALID,95.8116,VALID,-0.0509425,VALID,18.5112,VALID,185,VALID,0.729883,
2000-04-27, 01:23:00,VALID,916.617,VALID,0,VALID,95.9833,VALID,-0.0679233,VALID,18.4688,VALID,187,VALID,0.877534,
2000-04-27, 01:24:00,VALID,916.618,VALID,0,VALID,96.0214,VALID,-0.0679233,VALID,18.4565,VALID,184,VALID,1.08242,
2000-04-27, 01:25:00,VALID,916.612,VALID,0,VALID,95.982,VALID,-0.0849042,VALID,18.4496,VALID,175,VALID,0.780449,
2000-04-27, 01:26:00,VALID,916.597,VALID,0,VALID,96.0456,VALID,-0.0169808,VALID,18.4524,VALID,170,VALID,0.516242,
2000-04-27, 01:27:00,VALID,916.6,VALID,0,VALID,96.0532,VALID,-0.0509425,VALID,18.4625,VALID,186,VALID,0.694111,
2000-04-27, 01:28:00,VALID,916.596,VALID,0,VALID,96.0112,VALID,-0.0339617,VALID,18.4464,VALID,185,VALID,0.554688,
2000-04-27, 01:29:00,VALID,916.595,VALID,0,VALID,95.9883,VALID,-0.0339617,VALID,18.4462,VALID,174,VALID,0.183694,
2000-04-27, 01:30:00,VALID,916.59,VALID,0,VALID,96.0367,VALID,-0.0679233,VALID,18.4494,VALID,174,VALID,0,
2000-04-27, 01:31:00,VALID,916.585,VALID,0,VALID,96.0824,VALID,-0.0339617,VALID,18.4725,VALID,150,VALID,0.126689,
2000-04-27, 01:32:00,VALID,916.586,VALID,0,VALID,95.9947,VALID,-0.0849042,VALID,18.4623,VALID,40,VALID,0.316211,
2000-04-27, 01:33:00,VALID,916.582,VALID,0,VALID,95.9197,VALID,-0.0679233,VALID,18.4623,VALID,30,VALID,0.483974,
2000-04-27, 01:34:00,VALID,916.601,VALID,0,VALID,96.113,VALID,-0.0509425,VALID,18.469,VALID,48,VALID,0.0433799,
2000-04-27, 01:35:00,VALID,916.599,VALID,0,VALID,96.3953,VALID,-0.0509425,VALID,18.4851,VALID,79,VALID,0.0234375,
2000-04-27, 01:36:00,VALID,916.613,VALID,0,VALID,96.5644,VALID,-0.0509425,VALID,18.4951,VALID,119,VALID,0.0421464,
2000-04-27, 01:37:00,VALID,916.607,VALID,0,VALID,96.2808,VALID,-0.0339617,VALID,18.4625,VALID,121,VALID,0.504207,
2000-04-27, 01:38:00,VALID,916.614,VALID,0,VALID,96.2668,VALID,-0.0849042,VALID,18.4205,VALID,117,VALID,0.664453,
2000-04-27, 01:39:00,VALID,916.618,VALID,0,VALID,96.3609,VALID,-0.0339617,VALID,18.3853,VALID,108,VALID,0.8125,
2000-04-27, 01:40:00,VALID,916.625,VALID,0,VALID,96.4156,VALID,-0.0339617,VALID,18.3527,VALID,127,VALID,0.913867,
2000-04-27, 01:41:00,VALID,916.599,VALID,0,VALID,96.4499,VALID,-0.0849042,VALID,18.353,VALID,134,VALID,0.969752,
2000-04-27, 01:42:00,VALID,916.592,VALID,0,VALID,96.3406,VALID,-0.101885,VALID,18.3693,VALID,143,VALID,0.960938,
2000-04-27, 01:43:00,VALID,916.571,VALID,0,VALID,96.2376,VALID,-0.0679233,VALID,18.3564,VALID,167,VALID,0.917268,
2000-04-27, 01:44:00,VALID,916.561,VALID,0,VALID,96.3546,VALID,-0.0509425,VALID,18.3204,VALID,189,VALID,1.03495,
2000-04-27, 01:45:00,VALID,916.536,VALID,0,VALID,96.4169,VALID,-0.0509425,VALID,18.3144,VALID,197,VALID,0.855569,
2000-04-27, 01:46:00,VALID,916.514,VALID,0,VALID,96.633,VALID,-0.0509425,VALID,18.3077,VALID,209,VALID,1.09004,
2000-04-27, 01:47:00,VALID,916.494,VALID,0,VALID,96.806,VALID,-0.0849042,VALID,18.305,VALID,204,VALID,1.15372,
2000-04-27, 01:48:00,VALID,916.477,VALID,0,VALID,96.7717,VALID,-0.0679233,VALID,18.2851,VALID,199,VALID,1.23652,
2000-04-27, 01:49:00,VALID,916.466,VALID,0,VALID,96.7411,VALID,-0.0849042,VALID,18.2918,VALID,200,VALID,0.941306,
2000-04-27, 01:50:00,VALID,916.461,VALID,0,VALID,96.6241,VALID,-0.0849042,VALID,18.3077,VALID,211,VALID,1.29132,
2000-04-27, 01:51:00,VALID,916.467,VALID,0,VALID,96.6547,VALID,-0.0509425,VALID,18.3269,VALID,215,VALID,1.29828,
2000-04-27, 01:52:00,VALID,916.473,VALID,0,VALID,96.6877,VALID,-0.0679233,VALID,18.3467,VALID,206,VALID,1.07936,
2000-04-27, 01:53:00,VALID,916.482,VALID,0,VALID,96.6369,VALID,-0.0339617,VALID,18.3366,VALID,198,VALID,1.07372,
2000-04-27, 01:54:00,VALID,916.486,VALID,0,VALID,96.3457,VALID,0,VALID,18.353,VALID,184,VALID,1.28945,
2000-04-27, 01:55:00,VALID,916.491,VALID,0,VALID,96.1753,VALID,-0.0339617,VALID,18.3984,VALID,183,VALID,1.33383,
2000-04-27, 01:56:00,VALID,916.481,VALID,0,VALID,96.0125,VALID,-0.0509425,VALID,18.4233,VALID,188,VALID,0.993945,
2000-04-27, 01:57:00,VALID,916.486,VALID,0,VALID,95.7823,VALID,-0.0509425,VALID,18.4632,VALID,194,VALID,0.980569,
2000-04-27, 01:58:00,VALID,916.492,VALID,0,VALID,95.7188,VALID,-0.0679233,VALID,18.4757,VALID,190,VALID,0.827097,
2000-04-27, 01:59:00,VALID,916.492,VALID,0,VALID,95.7544,VALID,-0.0339617,VALID,18.4918,VALID,192,VALID,0.789063,
2000-04-27, 02:00:00,VALID,916.487,VALID,0,VALID,95.9286,VALID,-0.0169808,VALID,18.4849,VALID,194,VALID,0.221834,
2000-04-27, 02:01:00,VALID,916.488,VALID,0,VALID,96.1969,VALID,-0.0169808,VALID,18.5018,VALID,148,VALID,0.158053,
2000-04-27, 02:02:00,VALID,916.481,VALID,0,VALID,96.1804,VALID,-0.0169808,VALID,18.4851,VALID,166,VALID,0.614453,
2000-04-27, 02:03:00,VALID,916.479,VALID,0,VALID,96.0761,VALID,-0.0169808,VALID,18.4531,VALID,173,VALID,0.945735,
2000-04-27, 02:04:00,VALID,916.471,VALID,0,VALID,95.9324,VALID,-0.0339617,VALID,18.4265,VALID,178,VALID,1.23535,
2000-04-27, 02:05:00,VALID,916.449,VALID,0,VALID,95.8116,VALID,-0.0339617,VALID,18.4132,VALID,171,VALID,1.18359,
2000-04-27, 02:06:00,VALID,916.449,VALID,0,VALID,95.7264,VALID,0,VALID,18.4166,VALID,171,VALID,1.18688,
2000-04-27, 02:07:00,VALID,916.442,VALID,0,VALID,95.4911,VALID,0,VALID,18.4233,VALID,182,VALID,1.0609,
2000-04-27, 02:08:00,VALID,916.437,VALID,0,VALID,95.2216,VALID,0,VALID,18.4554,VALID,199,VALID,1.05798,
2000-04-27, 02:09:00,VALID,916.417,VALID,0,VALID,95.2355,VALID,0,VALID,18.5043,VALID,214,VALID,1.04607,
2000-04-27, 02:10:00,VALID,916.425,VALID,0,VALID,95.1796,VALID,0,VALID,18.5204,VALID,216,VALID,1.21094,
2000-04-27, 02:11:00,VALID,916.398,VALID,0,VALID,95.0423,VALID,0,VALID,18.517,VALID,209,VALID,1.19236,
2000-04-27, 02:12:00,VALID,916.395,VALID,0,VALID,94.9507,VALID,-0.0169808,VALID,18.5435,VALID,212,VALID,1.0375,
2000-04-27, 02:13:00,VALID,916.403,VALID,0,VALID,95.0143,VALID,-0.0169808,VALID,18.5428,VALID,210,VALID,0.901442,
2000-04-27, 02:14:00,VALID,916.436,VALID,0,VALID,95.2445,VALID,0,VALID,18.5493,VALID,212,VALID,0.915502,
2000-04-27, 02:15:00,VALID,916.443,VALID,0,VALID,95.3042,VALID,-0.0339617,VALID,18.537,VALID,204,VALID,0.925481,
2000-04-27, 02:16:00,VALID,916.459,VALID,0,VALID,95.0626,VALID,0,VALID,18.5107,VALID,189,VALID,1.21916,
2000-04-27, 02:17:00,VALID,916.468,VALID,0,VALID,95.0016,VALID,-0.0169808,VALID,18.514,VALID,188,VALID,1.19571,
2000-04-27, 02:18:00,VALID,916.487,VALID,0,VALID,94.6773,VALID,-0.0169808,VALID,18.5239,VALID,179,VALID,1.3084,
2000-04-27, 02:19:00,VALID,916.481,VALID,0,VALID,93.9601,VALID,-0.0339617,VALID,18.5594,VALID,183,VALID,1.40372,
2000-04-27, 02:20:00,VALID,916.477,VALID,0,VALID,93.5125,VALID,-0.0169808,VALID,18.6367,VALID,184,VALID,1.40937,
2000-04-27, 02:21:00,VALID,916.476,VALID,0,VALID,93.4172,VALID,-0.0509425,VALID,18.6881,VALID,185,VALID,1.37961,
2000-04-27, 02:22:00,VALID,916.481,VALID,0,VALID,93.4617,VALID,-0.0169808,VALID,18.708,VALID,192,VALID,1.27488,
2000-04-27, 02:23:00,VALID,916.472,VALID,0,VALID,93.6931,VALID,-0.0169808,VALID,18.7145,VALID,202,VALID,1.33293,
2000-04-27, 02:24:00,VALID,916.459,VALID,0,VALID,93.9907,VALID,0,VALID,18.6948,VALID,202,VALID,1.24383,
2000-04-27, 02:25:00,VALID,916.436,VALID,0,VALID,93.9945,VALID,0,VALID,18.6593,VALID,200,VALID,1.44611,
2000-04-27, 02:26:00,VALID,916.428,VALID,0,VALID,93.8393,VALID,-0.0169808,VALID,18.6429,VALID,199,VALID,1.32871,
2000-04-27, 02:27:00,VALID,916.419,VALID,0,VALID,93.6689,VALID,-0.0169808,VALID,18.6628,VALID,203,VALID,1.38788,
2000-04-27, 02:28:00,VALID,916.42,VALID,0,VALID,93.9665,VALID,-0.0169808,VALID,18.6819,VALID,199,VALID,1.04492,
2000-04-27, 02:29:00,VALID,916.419,VALID,0,VALID,93.9678,VALID,-0.0169808,VALID,18.669,VALID,195,VALID,1.35116,
2000-04-27, 02:30:00,VALID,916.407,VALID,0,VALID,94.2221,VALID,0.0169808,VALID,18.6725,VALID,200,VALID,1.01069,
2000-04-27, 02:31:00,VALID,916.4,VALID,0,VALID,94.2882,VALID,0,VALID,18.6628,VALID,203,VALID,1.15244,
2000-04-27, 02:32:00,VALID,916.388,VALID,0,VALID,94.3238,VALID,0,VALID,18.6464,VALID,206,VALID,1.08984,
2000-04-27, 02:33:00,VALID,916.374,VALID,0,VALID,94.5692,VALID,-0.0339617,VALID,18.6432,VALID,199,VALID,1.36118,
2000-04-27, 02:34:00,VALID,916.351,VALID,0,VALID,94.5743,VALID,0,VALID,18.6141,VALID,209,VALID,1.36074,
2000-04-27, 02:35:00,VALID,916.341,VALID,0,VALID,94.5819,VALID,-0.0169808,VALID,18.6173,VALID,207,VALID,1.55427,
2000-04-27, 02:36:00,VALID,916.317,VALID,0,VALID,94.4052,VALID,0,VALID,18.5945,VALID,208,VALID,1.60586,
2000-04-27, 02:37:00,VALID,916.286,VALID,0,VALID,94.264,VALID,0,VALID,18.6169,VALID,206,VALID,1.42648,
2000-04-27, 02:38:00,VALID,916.271,VALID,0,VALID,94.1649,VALID,-0.0339617,VALID,18.6332,VALID,207,VALID,1.38939,
2000-04-27, 02:39:00,VALID,916.253,VALID,0,VALID,94.072,VALID,0,VALID,18.6432,VALID,201,VALID,1.16306,
2000-04-27, 02:40:00,VALID,916.232,VALID,0,VALID,93.8203,VALID,0,VALID,18.6496,VALID,195,VALID,1.64905,
2000-04-27, 02:41:00,VALID,916.226,VALID,0,VALID,93.7033,VALID,-0.0169808,VALID,18.669,VALID,196,VALID,1.66046,
2000-04-27, 02:42:00,VALID,916.198,VALID,0,VALID,93.4846,VALID,-0.0169808,VALID,18.6854,VALID,187,VALID,1.63789,
2000-04-27, 02:43:00,VALID,916.19,VALID,0,VALID,93.3549,VALID,-0.0169808,VALID,18.6918,VALID,187,VALID,1.63619,
2000-04-27, 02:44:00,VALID,916.182,VALID,0,VALID,93.3409,VALID,-0.0169808,VALID,18.6884,VALID,183,VALID,1.4957,
2000-04-27, 02:45:00,VALID,916.184,VALID,0,VALID,93.641,VALID,0,VALID,18.6914,VALID,203,VALID,1.16607,
2000-04-27, 02:46:00,VALID,916.178,VALID,0,VALID,93.7185,VALID,0,VALID,18.666,VALID,205,VALID,1.30428,
2000-04-27, 02:47:00,VALID,916.162,VALID,0,VALID,93.5163,VALID,-0.0169808,VALID,18.6404,VALID,203,VALID,1.47456,
2000-04-27, 02:48:00,VALID,916.16,VALID,0,VALID,93.187,VALID,0,VALID,18.6558,VALID,201,VALID,1.27632,
2000-04-27, 02:49:00,VALID,916.159,VALID,0,VALID,92.8119,VALID,0,VALID,18.6852,VALID,198,VALID,1.45373,
2000-04-27, 02:50:00,VALID,916.167,VALID,0,VALID,92.7114,VALID,-0.0169808,VALID,18.7108,VALID,202,VALID,1.10527,
2000-04-27, 02:51:00,VALID,916.168,VALID,0,VALID,92.5906,VALID,0,VALID,18.7368,VALID,206,VALID,1.0796,
2000-04-27, 02:52:00,VALID,916.165,VALID,0,VALID,92.5601,VALID,-0.0169808,VALID,18.7468,VALID,196,VALID,1.26699,
2000-04-27, 02:53:00,VALID,916.155,VALID,0,VALID,92.5932,VALID,0,VALID,18.7465,VALID,188,VALID,1.55909,
2000-04-27, 02:54:00,VALID,916.149,VALID,0,VALID,92.6389,VALID,-0.0339617,VALID,18.7271,VALID,177,VALID,1.47553,
2000-04-27, 02:55:00,VALID,916.136,VALID,0,VALID,92.8945,VALID,0,VALID,18.711,VALID,180,VALID,1.36078,
2000-04-27, 02:56:00,VALID,916.135,VALID,0,VALID,92.9454,VALID,0,VALID,18.6658,VALID,184,VALID,1.46299,
2000-04-27, 02:57:00,VALID,916.136,VALID,0,VALID,93.2302,VALID,-0.0339617,VALID,18.6399,VALID,180,VALID,1.34475,
2000-04-27, 02:58:00,VALID,916.132,VALID,0,VALID,93.7719,VALID,-0.0169808,VALID,18.5915,VALID,171,VALID,1.06172,
2000-04-27, 02:59:00,VALID,916.124,VALID,0,VALID,93.9016,VALID,0,VALID,18.5232,VALID,175,VALID,1.13788,
2000-04-27, 03:00:00,VALID,916.137,VALID,0,VALID,94.2984,VALID,0,VALID,18.4849,VALID,178,VALID,0.994141,
2000-04-27, 03:01:00,VALID,916.151,VALID,0,VALID,94.465,VALID,0,VALID,18.4231,VALID,185,VALID,1.03446,
2000-04-27, 03:02:00,VALID,916.13,VALID,0,VALID,94.6137,VALID,-0.0169808,VALID,18.4009,VALID,184,VALID,0.856702,
2000-04-27, 03:03:00,VALID,916.123,VALID,0,VALID,94.882,VALID,-0.0169808,VALID,18.3716,VALID,191,VALID,0.801883,
2000-04-27, 03:04:00,VALID,916.108,VALID,0,VALID,95.1033,VALID,-0.0169808,VALID,18.3463,VALID,208,VALID,0.809622,
2000-04-27, 03:05:00,VALID,916.104,VALID,0,VALID,95.2584,VALID,0,VALID,18.3105,VALID,211,VALID,0.911859,
2000-04-27, 03:06:00,VALID,916.103,VALID,0,VALID,94.7269,VALID,-0.0339617,VALID,18.2978,VALID,193,VALID,1.19668,
2000-04-27, 03:07:00,VALID,916.087,VALID,0,VALID,94.3302,VALID,-0.101885,VALID,18.3507,VALID,187,VALID,0.998522,
2000-04-27, 03:08:00,VALID,916.102,VALID,0,VALID,94.0123,VALID,-0.101885,VALID,18.3924,VALID,178,VALID,1.04863,
2000-04-27, 03:09:00,VALID,916.097,VALID,0,VALID,93.8609,VALID,-0.101885,VALID,18.4316,VALID,192,VALID,0.983574,
2000-04-27, 03:10:00,VALID,916.09,VALID,0,VALID,93.983,VALID,-0.101885,VALID,18.445,VALID,206,VALID,0.833059,
2000-04-27, 03:11:00,VALID,916.114,VALID,0,VALID,93.8457,VALID,-0.101885,VALID,18.4247,VALID,180,VALID,0.860777,
2000-04-27, 03:12:00,VALID,916.108,VALID,0,VALID,94.203,VALID,-0.101885,VALID,18.4346,VALID,155,VALID,0.836143,
2000-04-27, 03:13:00,VALID,916.101,VALID,0,VALID,94.4535,VALID,-0.118866,VALID,18.3859,VALID,146,VALID,0.992788,
2000-04-27, 03:14:00,VALID,916.104,VALID,0,VALID,94.6621,VALID,-0.118866,VALID,18.3543,VALID,150,VALID,0.734766,
2000-04-27, 03:15:00,VALID,916.11,VALID,0,VALID,94.6735,VALID,-0.101885,VALID,18.3216,VALID,158,VALID,0.713471,
2000-04-27, 03:16:00,VALID,916.109,VALID,0,VALID,94.7142,VALID,-0.118866,VALID,18.3181,VALID,149,VALID,0.552148,
2000-04-27, 03:17:00,VALID,916.128,VALID,0,VALID,94.7905,VALID,-0.0849042,VALID,18.3119,VALID,157,VALID,0.823518,
2000-04-27, 03:18:00,VALID,916.134,VALID,0,VALID,94.8871,VALID,0,VALID,18.2948,VALID,115,VALID,1.03084,
2000-04-27, 03:19:00,VALID,916.128,VALID,0,VALID,95.027,VALID,-0.0169808,VALID,18.2466,VALID,107,VALID,1.04547,
2000-04-27, 03:20:00,VALID,916.136,VALID,0,VALID,95.2343,VALID,0,VALID,18.185,VALID,119,VALID,0.884457,
2000-04-27, 03:21:00,VALID,916.141,VALID,0,VALID,95.4047,VALID,0,VALID,18.1557,VALID,130,VALID,0.626202,
2000-04-27, 03:22:00,VALID,916.148,VALID,0,VALID,95.4861,VALID,-0.0169808,VALID,18.1398,VALID,148,VALID,0.262109,
2000-04-27, 03:23:00,VALID,916.152,VALID,0,VALID,95.617,VALID,-0.0169808,VALID,18.1234,VALID,149,VALID,0.44848,
2000-04-27, 03:24:00,VALID,916.159,VALID,0,VALID,95.7544,VALID,-0.0339617,VALID,18.1107,VALID,165,VALID,0.505078,
2000-04-27, 03:25:00,VALID,916.168,VALID,0,VALID,95.9133,VALID,0,VALID,18.0911,VALID,181,VALID,0.689503,
2000-04-27, 03:26:00,VALID,916.17,VALID,0,VALID,95.9197,VALID,-0.0849042,VALID,18.0782,VALID,173,VALID,0.670847,
2000-04-27, 03:27:00,VALID,916.182,VALID,0,VALID,95.926,VALID,-0.0169808,VALID,18.0916,VALID,170,VALID,0.628806,
2000-04-27, 03:28:00,VALID,916.172,VALID,0,VALID,95.9006,VALID,-0.0679233,VALID,18.0817,VALID,168,VALID,0.907689,
2000-04-27, 03:29:00,VALID,916.161,VALID,0,VALID,95.9031,VALID,-0.0169808,VALID,18.0884,VALID,165,VALID,0.957732,
2000-04-27, 03:30:00,VALID,916.142,VALID,0,VALID,95.8726,VALID,-0.0169808,VALID,18.0685,VALID,152,VALID,0.474023,
2000-04-27, 03:31:00,VALID,916.139,VALID,0,VALID,96.0634,VALID,-0.0169808,VALID,18.0298,VALID,157,VALID,0.635557,